QPF
0.00 0.00 0.00 0.00 0.00 0.00 0.00 0.00 0.01 0.02 0.03 0.05 0.05 0.04 0.05 0.04 0.04 0.07 0.13 0.12 0.09 0.09 0.10 0.10 0.09 0.06 0.08 0.09 0.09 0.11 0.12 0.12 0.10 0.10 0.11 0.11 0.07 0.06 0.06 0.07 0.08 0.08 0.07
0.00 0.00 0.00 0.00 0.00 0.00 0.00 0.00 0.01 0.02 0.03 0.04 0.04 0.04 0.05 0.04 0.04 0.05 0.09 0.08 0.08 0.09 0.10 0.09 0.08 0.07 0.09 0.09 0.09 0.10 0.09 0.08 0.08 0.09 0.11 0.12 0.10 0.08 0.05 0.06 0.05 0.05 0.06
0.00 0.00 0.00 0.00 0.00 0.00 0.00 0.00 0.01 0.02 0.02 0.02 0.03 0.03 0.04 0.04 0.04 0.03 0.05 0.04 0.04 0.07 0.09 0.09 0.09 0.09 0.08 0.10 0.11 0.09 0.07 0.08 0.08 0.06 0.09 0.12 0.13 0.11 0.09 0.07 0.05 0.05 0.05
0.00 0.00 0.00 0.00 0.00 0.00 0.00 0.00 0.01 0.01 0.01 0.02 0.03 0.04 0.04 0.05 0.04 0.04 0.04 0.03 0.02 0.04 0.05 0.06 0.06 0.06 0.06 0.09 0.08 0.08 0.06 0.07 0.07 0.07 0.07 0.09 0.13 0.12 0.10 0.09 0.08 0.07 0.06
0.00 0.00 0.00 0.00 0.00 0.00 0.00 0.00 0.01 0.01 0.01 0.02 0.03 0.05 0.04 0.03 0.02 0.02 0.03 0.03 0.02 0.02 0.03 0.04 0.04 0.05 0.05 0.06 0.06 0.07 0.05 0.04 0.05 0.06 0.08 0.09 0.11 0.11 0.10 0.09 0.06 0.05 0.04
0.00 0.00 0.00 0.00 0.00 0.00 0.00 0.00 0.00 0.01 0.01 0.01 0.02 0.03 0.04 0.04 0.03 0.03 0.03 0.04 0.03 0.03 0.02 0.03 0.03 0.04 0.04 0.04 0.04 0.05 0.04 0.04 0.05 0.05 0.06 0.08 0.08 0.08 0.08 0.08 0.08 0.06 0.04
0.00 0.00 0.00 0.00 0.00 0.00 0.00 0.00 0.00 0.01 0.01 0.01 0.01 0.02 0.02 0.03 0.04 0.04 0.04 0.04 0.03 0.03 0.04 0.03 0.03 0.04 0.03 0.03 0.03 0.03 0.03 0.03 0.04 0.05 0.05 0.06 0.06 0.06 0.06 0.07 0.09 0.07 0.05
0.00 0.00 0.00 0.00 0.00 0.00 0.00 0.00 0.00 0.01 0.01 0.01 0.01 0.02 0.03 0.03 0.04 0.04 0.04 0.03 0.02 0.02 0.03 0.01 0.02 0.02 0.02 0.02 0.03 0.03 0.03 0.03 0.03 0.03 0.05 0.06 0.05 0.05 0.05 0.06 0.08 0.08 0.07
0.00 0.00 0.00 0.00 0.00 0.00 0.01 0.01 0.01 0.01 0.01 0.01 0.01 0.01 0.02 0.02 0.03 0.07 0.07 0.04 0.02 0.02 0.02 0.01 0.02 0.02 0.02 0.02 0.03 0.04 0.04 0.04 0.04 0.04 0.04 0.04 0.04 0.04 0.04 0.05 0.07 0.08 0.07
0.00 0.00 0.01 0.01 0.01 0.02 0.04 0.02 0.02 0.05 0.03 0.01 0.02 0.01 0.02 0.01 0.02 0.05 0.10 0.09 0.05 0.03 0.02 0.02 0.03 0.03 0.03 0.03 0.03 0.04 0.04 0.04 0.04 0.04 0.03 0.03 0.02 0.03 0.03 0.04 0.06 0.07 0.07
0.01 0.00 0.01 0.03 0.02 0.02 0.02 0.02 0.01 0.02 0.02 0.02 0.02 0.03 0.02 0.02 0.02 0.03 0.04 0.04 0.04 0.04 0.04 0.04 0.04 0.05 0.05 0.05 0.05 0.04 0.03 0.03 0.04 0.04 0.03 0.02 0.03 0.04 0.04 0.03 0.04 0.06 0.07
0.01 0.00 0.01 0.05 0.05 0.02 0.02 0.03 0.02 0.01 0.01 0.01 0.02 0.02 0.02 0.02 0.03 0.03 0.03 0.03 0.03 0.04 0.04 0.04 0.04 0.04 0.06 0.06 0.04 0.03 0.03 0.03 0.03 0.03 0.03 0.03 0.04 0.04 0.05 0.04 0.04 0.06 0.07
0.01 0.01 0.01 0.06 0.05 0.02 0.02 0.03 0.04 0.02 0.01 0.01 0.01 0.02 0.02 0.02 0.02 0.03 0.03 0.04 0.03 0.03 0.03 0.03 0.03 0.04 0.04 0.03 0.04 0.03 0.03 0.03 0.02 0.02 0.03 0.04 0.04 0.04 0.05 0.06 0.05 0.05 0.04
0.01 0.02 0.02 0.05 0.03 0.02 0.01 0.00 0.01 0.01 0.01 0.01 0.01 0.02 0.02 0.02 0.02 0.02 0.04 0.04 0.04 0.04 0.04 0.04 0.04 0.03 0.03 0.03 0.03 0.03 0.03 0.03 0.03 0.03 0.03 0.03 0.03 0.04 0.05 0.05 0.05 0.06 0.05
0.02 0.03 0.06 0.08 0.06 0.04 0.02 0.02 0.01 0.01 0.01 0.01 0.01 0.01 0.01 0.02 0.03 0.04 0.06 0.05 0.04 0.04 0.04 0.04 0.05 0.05 0.04 0.04 0.04 0.03 0.04 0.04 0.03 0.03 0.03 0.03 0.03 0.04 0.04 0.04 0.05 0.05 0.05
0.05 0.05 0.06 0.10 0.05 0.03 0.02 0.02 0.01 0.01 0.01 0.01 0.01 0.01 0.03 0.03 0.05 0.09 0.11 0.07 0.06 0.06 0.05 0.05 0.06 0.06 0.04 0.04 0.03 0.03 0.04 0.05 0.04 0.04 0.04 0.03 0.03 0.03 0.03 0.01 0.01 0.02 0.03
0.03 0.03 0.04 0.04 0.03 0.02 0.01 0.00 0.01 0.00 0.01 0.01 0.02 0.04 0.06 0.07 0.10 0.12 0.11 0.06 0.06 0.06 0.07 0.07 0.07 0.05 0.05 0.05 0.02 0.02 0.03 0.03 0.03 0.04 0.03 0.02 0.03 0.04 0.03 0.02 0.02 0.02 0.01
0.02 0.02 0.03 0.03 0.03 0.01 0.01 0.00 0.00 0.00 0.01 0.02 0.04 0.07 0.07 0.07 0.08 0.08 0.08 0.05 0.05 0.05 0.05 0.05 0.07 0.07 0.05 0.05 0.02 0.01 0.01 0.02 0.01 0.02 0.03 0.03 0.04 0.05 0.04 0.04 0.04 0.03 0.03
0.01 0.01 0.01 0.01 0.01 0.01 0.01 0.01 0.01 0.01 0.02 0.03 0.04 0.04 0.07 0.16 0.15 0.07 0.05 0.05 0.04 0.05 0.05 0.05 0.05 0.06 0.06 0.06 0.03 0.02 0.02 0.01 0.01 0.01 0.02 0.03 0.04 0.07 0.05 0.04 0.04 0.04 0.03
0.01 0.01 0.02 0.02 0.02 0.02 0.02 0.02 0.02 0.02 0.02 0.02 0.03 0.04 0.07 0.12 0.10 0.08 0.06 0.05 0.05 0.05 0.04 0.05 0.04 0.04 0.04 0.05 0.04 0.03 0.02 0.02 0.02 0.02 0.02 0.03 0.03 0.04 0.03 0.03 0.04 0.03 0.04
0.01 0.02 0.02 0.02 0.02 0.03 0.03 0.02 0.02 0.02 0.03 0.04 0.04 0.05 0.08 0.07 0.07 0.06 0.06 0.06 0.05 0.04 0.04 0.04 0.04 0.04 0.02 0.03 0.03 0.03 0.02 0.01 0.01 0.01 0.02 0.02 0.03 0.03 0.03 0.03 0.03 0.03 0.03
0.02 0.02 0.02 0.01 0.01 0.01 0.02 0.01 0.01 0.02 0.02 0.02 0.02 0.03 0.03 0.04 0.04 0.05 0.06 0.07 0.06 0.05 0.05 0.05 0.04 0.04 0.03 0.02 0.02 0.02 0.02 0.02 0.01 0.01 0.02 0.01 0.02 0.02 0.02 0.02 0.02 0.02 0.01
0.01 0.01 0.02 0.02 0.02 0.02 0.02 0.03 0.02 0.01 0.01 0.01 0.02 0.02 0.02 0.02 0.03 0.04 0.04 0.05 0.07 0.07 0.06 0.05 0.04 0.04 0.05 0.03 0.02 0.02 0.02 0.03 0.02 0.02 0.01 0.01 0.01 0.01 0.01 0.01 0.01 0.02 0.01
0.00 0.01 0.01 0.01 0.02 0.03 0.03 0.03 0.03 0.02 0.01 0.02 0.02 0.01 0.01 0.01 0.02 0.03 0.03 0.03 0.03 0.04 0.04 0.04 0.04 0.05 0.05 0.05 0.04 0.04 0.03 0.03 0.02 0.02 0.01 0.00 0.00 0.00 0.00 0.01 0.01 0.01 0.01
0.01 0.01 0.01 0.01 0.01 0.02 0.02 0.02 0.03 0.03 0.03 0.03 0.02 0.02 0.01 0.02 0.02 0.03 0.03 0.03 0.02 0.03 0.03 0.03 0.04 0.04 0.05 0.06 0.07 0.05 0.04 0.04 0.03 0.02 0.01 0.01 0.01 0.01 0.01 0.01 0.01 0.02 0.02
0.03 0.02 0.01 0.01 0.01 0.02 0.03 0.03 0.04 0.04 0.04 0.03 0.03 0.02 0.02 0.02 0.02 0.03 0.03 0.04 0.04 0.04 0.04 0.03 0.02 0.03 0.03 0.04 0.04 0.04 0.04 0.04 0.03 0.02 0.01 0.02 0.01 0.01 0.01 0.01 0.01 0.02 0.02
MSLP
1011.32 1011.31 1011.38 1011.51 1011.72 1011.98 1012.29 1012.62 1012.96 1013.27 1013.54 1013.76 1013.90 1013.96 1013.93 1013.83 1013.65 1013.43 1013.19 1012.95 1012.75 1012.61 1012.55 1012.57 1012.66 1012.81 1013.00 1013.19 1013.36 1013.49 1013.57 1013.61 1013.61 1013.59 1013.57 1013.56 1013.57 1013.61 1013.67 1013.75 1013.85 1013.96 1014.10
1010.91 1010.88 1010.96 1011.12 1011.36 1011.65 1011.99 1012.34 1012.71 1013.06 1013.38 1013.65 1013.85 1013.96 1013.97 1013.88 1013.70 1013.46 1013.19 1012.92 1012.70 1012.55 1012.50 1012.54 1012.67 1012.86 1013.08 1013.28 1013.45 1013.57 1013.62 1013.62 1013.58 1013.53 1013.49 1013.46 1013.47 1013.50 1013.56 1013.62 1013.69 1013.77 1013.86
1010.48 1010.45 1010.55 1010.75 1011.03 1011.36 1011.73 1012.10 1012.48 1012.86 1013.20 1013.51 1013.75 1013.91 1013.96 1013.91 1013.75 1013.52 1013.24 1012.97 1012.74 1012.60 1012.55 1012.61 1012.75 1012.96 1013.18 1013.39 1013.54 1013.63 1013.65 1013.61 1013.54 1013.46 1013.40 1013.37 1013.37 1013.41 1013.47 1013.52 1013.58 1013.63 1013.68
1010.11 1010.10 1010.24 1010.49 1010.82 1011.19 1011.57 1011.96 1012.33 1012.70 1013.05 1013.37 1013.64 1013.83 1013.93 1013.92 1013.80 1013.60 1013.34 1013.08 1012.86 1012.71 1012.66 1012.71 1012.85 1013.05 1013.26 1013.45 1013.58 1013.64 1013.62 1013.56 1013.46 1013.37 1013.31 1013.29 1013.30 1013.35 1013.42 1013.48 1013.52 1013.55 1013.56
1009.88 1009.89 1010.08 1010.39 1010.77 1011.17 1011.57 1011.94 1012.30 1012.64 1012.96 1013.27 1013.54 1013.76 1013.89 1013.92 1013.84 1013.68 1013.45 1013.21 1012.99 1012.83 1012.76 1012.80 1012.91 1013.07 1013.25 1013.41 1013.51 1013.55 1013.52 1013.45 1013.35 1013.27 1013.22 1013.22 1013.26 1013.34 1013.42 1013.49 1013.53 1013.54 1013.53
1009.86 1009.91 1010.14 1010.51 1010.92 1011.34 1011.73 1012.08 1012.39 1012.68 1012.96 1013.23 1013.48 1013.69 1013.84 1013.90 1013.86 1013.73 1013.54 1013.31 1013.09 1012.92 1012.82 1012.81 1012.88 1012.99 1013.13 1013.25 1013.33 1013.36 1013.33 1013.27 1013.20 1013.15 1013.13 1013.17 1013.24 1013.34 1013.45 1013.53 1013.58 1013.58 1013.55
1010.10 1010.17 1010.45 1010.84 1011.28 1011.70 1012.07 1012.37 1012.62 1012.83 1013.04 1013.25 1013.46 1013.65 1013.79 1013.87 1013.86 1013.76 1013.58 1013.36 1013.14 1012.94 1012.80 1012.74 1012.75 1012.82 1012.91 1013.00 1013.07 1013.10 1013.09 1013.06 1013.03 1013.01 1013.04 1013.10 1013.21 1013.34 1013.46 1013.56 1013.62 1013.63 1013.60
1010.59 1010.69 1010.99 1011.40 1011.83 1012.22 1012.55 1012.79 1012.96 1013.10 1013.23 1013.37 1013.52 1013.66 1013.79 1013.86 1013.85 1013.76 1013.60 1013.38 1013.14 1012.92 1012.74 1012.62 1012.58 1012.59 1012.65 1012.71 1012.78 1012.82 1012.84 1012.84 1012.85 1012.87 1012.93 1013.02 1013.14 1013.28 1013.42 1013.53 1013.60 1013.63 1013.62
1011.31 1011.43 1011.73 1012.11 1012.52 1012.87 1013.13 1013.31 1013.41 1013.47 1013.52 1013.58 1013.66 1013.76 1013.85 1013.89 1013.88 1013.79 1013.62 1013.40 1013.15 1012.90 1012.68 1012.52 1012.43 1012.41 1012.43 1012.48 1012.54 1012.59 1012.63 1012.66 1012.69 1012.73 1012.80 1012.89 1013.00 1013.14 1013.27 1013.38 1013.47 1013.52 1013.54
1012.19 1012.31 1012.59 1012.93 1013.27 1013.56 1013.77 1013.88 1013.91 1013.91 1013.89 1013.89 1013.91 1013.96 1014.00 1014.02 1013.98 1013.88 1013.71 1013.48 1013.22 1012.95 1012.71 1012.53 1012.41 1012.35 1012.35 1012.38 1012.43 1012.48 1012.52 1012.55 1012.58 1012.60 1012.64 1012.70 1012.78 1012.87 1012.98 1013.08 1013.18 1013.26 1013.33
1013.14 1013.25 1013.47 1013.75 1014.02 1014.25 1014.39 1014.45 1014.44 1014.39 1014.33 1014.28 1014.26 1014.26 1014.27 1014.25 1014.19 1014.07 1013.90 1013.66 1013.40 1013.13 1012.89 1012.69 1012.56 1012.48 1012.46 1012.47 1012.50 1012.53 1012.54 1012.53 1012.51 1012.48 1012.46 1012.44 1012.45 1012.48 1012.54 1012.62 1012.72 1012.83 1012.96
1014.06 1014.14 1014.30 1014.50 1014.69 1014.85 1014.94 1014.96 1014.93 1014.87 1014.79 1014.73 1014.68 1014.65 1014.62 1014.58 1014.49 1014.37 1014.19 1013.96 1013.71 1013.46 1013.22 1013.03 1012.89 1012.80 1012.75 1012.73 1012.72 1012.70 1012.66 1012.59 1012.49 1012.37 1012.25 1012.14 1012.05 1012.00 1012.00 1012.04 1012.13 1012.26 1012.44
1014.86 1014.90 1014.98 1015.10 1015.22 1015.32 1015.37 1015.38 1015.36 1015.30 1015.24 1015.17 1015.12 1015.07 1015.02 1014.95 1014.86 1014.72 1014.54 1014.34 1014.11 1013.88 1013.66 1013.48 1013.34 1013.24 1013.16 1013.10 1013.04 1012.95 1012.84 1012.68 1012.48 1012.26 1012.03 1011.81 1011.63 1011.49 1011.41 1011.41 1011.48 1011.62 1011.83
1015.49 1015.47 1015.49 1015.53 1015.58 1015.63 1015.66 1015.68 1015.67 1015.64 1015.61 1015.57 1015.52 1015.47 1015.40 1015.32 1015.21 1015.07 1014.90 1014.71 1014.51 1014.31 1014.12 1013.96 1013.82 1013.70 1013.59 1013.48 1013.36 1013.20 1012.99 1012.74 1012.45 1012.14 1011.81 1011.50 1011.22 1011.01 1010.87 1010.82 1010.86 1011.00 1011.21
1015.92 1015.85 1015.79 1015.76 1015.76 1015.77 1015.80 1015.83 1015.86 1015.87 1015.87 1015.86 1015.83 1015.78 1015.70 1015.60 1015.48 1015.34 1015.18 1015.01 1014.83 1014.65 1014.49 1014.34 1014.20 1014.06 1013.92 1013.77 1013.58 1013.35 1013.07 1012.75 1012.38 1012.00 1011.61 1011.23 1010.90 1010.64 1010.45 1010.36 1010.37 1010.47 1010.66
1016.16 1016.04 1015.93 1015.84 1015.80 1015.79 1015.82 1015.87 1015.93 1015.99 1016.02 1016.03 1016.01 1015.96 1015.88 1015.76 1015.63 1015.48 1015.32 1015.15 1014.99 1014.84 1014.69 1014.54 1014.39 1014.24 1014.06 1013.86 1013.62 1013.34 1013.02 1012.65 1012.26 1011.85 1011.44 1011.05 1010.71 1010.42 1010.21 1010.09 1010.05 1010.10 1010.22
1016.25 1016.10 1015.94 1015.82 1015.75 1015.74 1015.77 1015.85 1015.94 1016.02 1016.08 1016.11 1016.09 1016.02 1015.92 1015.78 1015.63 1015.46 1015.29 1015.13 1014.97 1014.82 1014.67 1014.52 1014.36 1014.18 1013.98 1013.74 1013.47 1013.17 1012.83 1012.46 1012.08 1011.69 1011.31 1010.96 1010.64 1010.37 1010.15 1010.00 1009.92 1009.89 1009.93
1016.26 1016.09 1015.92 1015.79 1015.71 1015.69 1015.73 1015.82 1015.92 1016.02 1016.09 1016.11 1016.08 1015.99 1015.86 1015.69 1015.50 1015.31 1015.12 1014.94 1014.77 1014.61 1014.45 1014.29 1014.11 1013.91 1013.68 1013.43 1013.15 1012.85 1012.53 1012.20 1011.86 1011.54 1011.22 1010.93 1010.67 1010.43 1010.22 1010.05 1009.92 1009.81 1009.73
1016.28 1016.12 1015.95 1015.81 1015.73 1015.72 1015.76 1015.85 1015.96 1016.06 1016.11 1016.12 1016.06 1015.93 1015.76 1015.55 1015.32 1015.09 1014.87 1014.66 1014.47 1014.29 1014.11 1013.93 1013.73 1013.51 1013.27 1013.00 1012.73 1012.45 1012.16 1011.89 1011.62 1011.37 1011.14 1010.92 1010.71 1010.51 1010.31 1010.12 1009.93 1009.73 1009.54
1016.37 1016.23 1016.08 1015.96 1015.89 1015.88 1015.93 1016.01 1016.10 1016.17 1016.20 1016.17 1016.07 1015.90 1015.67 1015.41 1015.14 1014.86 1014.60 1014.36 1014.14 1013.93 1013.73 1013.52 1013.30 1013.07 1012.82 1012.56 1012.29 1012.03 1011.79 1011.56 1011.36 1011.18 1011.01 1010.84 1010.68 1010.50 1010.30 1010.07 1009.82 1009.54 1009.24
1016.58 1016.47 1016.35 1016.25 1016.19 1016.19 1016.23 1016.29 1016.36 1016.39 1016.37 1016.29 1016.14 1015.91 1015.63 1015.32 1014.99 1014.67 1014.37 1014.10 1013.84 1013.61 1013.39 1013.16 1012.93 1012.68 1012.43 1012.17 1011.91 1011.67 1011.45 1011.25 1011.08 1010.93 1010.79 1010.64 1010.47 1010.28 1010.05 1009.78 1009.47 1009.11 1008.73
1016.92 1016.84 1016.75 1016.68 1016.63 1016.62 1016.64 1016.68 1016.70 1016.68 1016.61 1016.47 1016.25 1015.97 1015.63 1015.27 1014.90 1014.54 1014.20 1013.90 1013.62 1013.37 1013.13 1012.90 1012.66 1012.41 1012.15 1011.89 1011.63 1011.39 1011.17 1010.97 1010.78 1010.61 1010.44 1010.26 1010.05 1009.81 1009.52 1009.19 1008.81 1008.40 1007.97
1017.38 1017.33 1017.26 1017.20 1017.15 1017.12 1017.12 1017.11 1017.07 1016.99 1016.85 1016.64 1016.36 1016.02 1015.63 1015.22 1014.82 1014.43 1014.07 1013.75 1013.47 1013.22 1012.98 1012.75 1012.51 1012.26 1012.01 1011.74 1011.48 1011.21 1010.96 1010.71 1010.47 1010.23 1009.98 1009.72 1009.42 1009.08 1008.71 1008.30 1007.87 1007.41 1006.95
1017.89 1017.86 1017.80 1017.73 1017.67 1017.62 1017.56 1017.50 1017.39 1017.25 1017.03 1016.75 1016.41 1016.01 1015.58 1015.14 1014.71 1014.31 1013.95 1013.64 1013.37 1013.13 1012.92 1012.70 1012.49 1012.25 1012.00 1011.73 1011.44 1011.14 1010.83 1010.51 1010.18 1009.83 1009.46 1009.07 1008.65 1008.20 1007.72 1007.23 1006.73 1006.24 1005.78
1018.41 1018.37 1018.30 1018.21 1018.12 1018.02 1017.91 1017.77 1017.60 1017.37 1017.09 1016.74 1016.34 1015.90 1015.44 1014.98 1014.55 1014.16 1013.83 1013.54 1013.31 1013.11 1012.93 1012.76 1012.57 1012.36 1012.12 1011.84 1011.52 1011.18 1010.80 1010.39 1009.95 1009.47 1008.97 1008.44 1007.88 1007.30 1006.71 1006.12 1005.57 1005.04 1004.58
1018.87 1018.80 1018.70 1018.58 1018.44 1018.29 1018.11 1017.90 1017.65 1017.35 1016.99 1016.59 1016.14 1015.67 1015.20 1014.75 1014.34 1013.99 1013.70 1013.47 1013.29 1013.15 1013.03 1012.90 1012.76 1012.57 1012.35 1012.07 1011.73 1011.34 1010.89 1010.40 1009.85 1009.26 1008.62 1007.96 1007.27 1006.57 1005.87 1005.20 1004.57 1004.00 1003.52
Thickness
5834 5834 5831 5828 5822 5816 5811 5808 5805 5802 5800 5797 5793 5790 5789 5790 5790 5791 5790 5789 5788 5787 5785 5784 5782 5781 5779 5777 5776 5774 5771 5769 5770 5764 5761 5763 5765 5763 5762 5760 5758 5755 5753
5836 5834 5833 5830 5825 5819 5815 5811 5807 5805 5803 5800 5798 5796 5794 5793 5794 5793 5792 5790 5789 5788 5787 5784 5782 5782 5779 5777 5775 5773 5769 5768 5769 5763 5755 5751 5752 5756 5760 5757 5755 5753 5751
5839 5837 5834 5833 5829 5823 5819 5817 5812 5809 5806 5804 5802 5800 5797 5795 5794 5793 5792 5792 5790 5789 5786 5785 5783 5782 5780 5777 5775 5773 5770 5766 5767 5766 5758 5748 5744 5748 5752 5753 5752 5751 5749
5850 5845 5840 5836 5833 5830 5827 5822 5817 5813 5810 5808 5804 5799 5794 5791 5793 5794 5793 5793 5791 5790 5788 5785 5783 5781 5780 5778 5776 5774 5772 5768 5763 5764 5764 5760 5756 5746 5742 5745 5748 5748 5745
5857 5851 5847 5843 5840 5837 5832 5826 5820 5816 5813 5810 5807 5803 5799 5797 5797 5797 5794 5792 5791 5790 5788 5786 5783 5781 5779 5777 5775 5774 5771 5769 5764 5762 5761 5759 5758 5754 5744 5738 5740 5742 5743
5863 5858 5854 5849 5845 5842 5837 5830 5823 5818 5816 5812 5810 5805 5801 5799 5797 5795 5792 5791 5791 5789 5788 5786 5783 5780 5778 5776 5775 5773 5771 5768 5765 5763 5761 5758 5754 5750 5746 5740 5737 5736 5738
5866 5860 5855 5849 5846 5843 5839 5834 5826 5820 5818 5814 5811 5808 5805 5802 5798 5796 5794 5792 5790 5788 5787 5786 5783 5780 5778 5777 5775 5772 5770 5768 5764 5762 5760 5759 5757 5755 5750 5743 5738 5734 5733
5868 5863 5859 5853 5849 5846 5841 5836 5828 5822 5819 5816 5813 5811 5808 5804 5802 5800 5797 5795 5793 5791 5790 5787 5784 5781 5778 5777 5774 5772 5770 5767 5764 5762 5760 5757 5757 5755 5751 5745 5738 5730 5727
5869 5865 5862 5857 5852 5847 5842 5838 5830 5824 5821 5818 5815 5812 5809 5806 5804 5803 5800 5797 5795 5794 5791 5788 5784 5781 5778 5776 5773 5769 5767 5766 5763 5761 5758 5755 5755 5754 5752 5748 5742 5732 5722
5868 5866 5863 5859 5855 5851 5844 5840 5834 5826 5823 5820 5817 5814 5811 5808 5806 5803 5800 5798 5796 5794 5791 5788 5784 5781 5778 5775 5771 5768 5767 5764 5762 5759 5756 5753 5752 5751 5749 5746 5743 5738 5729
5866 5865 5864 5861 5856 5851 5847 5841 5835 5829 5825 5822 5819 5816 5813 5810 5807 5803 5801 5798 5796 5793 5789 5786 5783 5780 5777 5774 5770 5768 5765 5762 5760 5758 5755 5752 5750 5747 5745 5743 5741 5737 5732
5868 5864 5862 5858 5853 5849 5846 5840 5836 5832 5828 5825 5821 5816 5814 5811 5807 5804 5801 5798 5795 5792 5789 5786 5782 5779 5776 5773 5770 5766 5764 5760 5757 5755 5753 5749 5747 5743 5741 5738 5735 5733 5730
5864 5863 5858 5853 5850 5847 5844 5841 5837 5833 5830 5826 5821 5816 5813 5810 5806 5803 5801 5798 5794 5790 5787 5784 5780 5777 5775 5772 5769 5766 5762 5759 5756 5753 5750 5747 5743 5739 5737 5734 5731 5729 5727
5858 5854 5850 5848 5847 5844 5842 5839 5836 5834 5830 5825 5820 5815 5812 5810 5806 5803 5800 5796 5792 5788 5784 5782 5779 5776 5773 5770 5767 5764 5760 5757 5754 5751 5748 5744 5741 5737 5734 5731 5728 5725 5721
5849 5848 5845 5840 5840 5840 5838 5837 5834 5831 5829 5823 5819 5815 5812 5809 5806 5801 5797 5794 5789 5786 5782 5779 5776 5773 5770 5767 5763 5760 5758 5754 5751 5749 5746 5742 5739 5735 5731 5728 5724 5721 5715
5841 5840 5839 5835 5834 5835 5834 5832 5830 5828 5825 5820 5816 5813 5810 5805 5802 5798 5794 5789 5786 5782 5779 5775 5772 5769 5767 5764 5759 5756 5754 5751 5748 5744 5742 5739 5736 5732 5728 5725 5721 5717 5712
5834 5831 5830 5830 5830 5830 5830 5827 5826 5825 5820 5815 5811 5808 5804 5800 5797 5794 5789 5785 5782 5778 5774 5771 5768 5765 5762 5759 5755 5751 5749 5747 5744 5741 5738 5737 5735 5730 5726 5722 5718 5714 5711
5829 5827 5827 5825 5823 5825 5825 5825 5823 5818 5813 5809 5805 5802 5798 5794 5792 5789 5784 5781 5778 5774 5770 5767 5764 5760 5757 5752 5749 5746 5744 5742 5740 5737 5734 5731 5728 5726 5721 5718 5714 5711 5707
5825 5824 5824 5822 5819 5818 5818 5816 5813 5810 5806 5802 5799 5797 5793 5789 5786 5782 5779 5776 5773 5769 5766 5763 5759 5755 5751 5746 5742 5739 5738 5736 5734 5733 5731 5728 5724 5720 5717 5713 5709 5706 5703
5818 5816 5817 5815 5812 5811 5811 5806 5803 5800 5797 5796 5794 5791 5788 5784 5780 5777 5774 5771 5768 5764 5761 5758 5754 5750 5745 5740 5737 5733 5732 5729 5727 5726 5724 5721 5718 5714 5710 5707 5704 5699 5698
5808 5808 5806 5803 5802 5801 5799 5795 5793 5790 5791 5791 5788 5785 5782 5778 5775 5771 5768 5764 5761 5757 5754 5750 5748 5745 5740 5735 5730 5726 5725 5724 5721 5719 5717 5715 5710 5707 5703 5701 5698 5695 5693
5795 5796 5793 5791 5792 5792 5788 5784 5782 5784 5785 5782 5779 5777 5774 5771 5769 5763 5760 5757 5753 5749 5746 5742 5739 5737 5734 5729 5723 5718 5717 5716 5714 5712 5712 5709 5704 5700 5697 5694 5692 5689 5686
5781 5783 5782 5780 5781 5782 5780 5775 5775 5776 5775 5772 5770 5768 5765 5763 5760 5756 5752 5749 5745 5741 5737 5734 5731 5728 5726 5721 5716 5712 5708 5706 5704 5703 5701 5699 5695 5692 5689 5687 5685 5681 5679
5772 5773 5771 5769 5769 5770 5770 5769 5768 5767 5764 5761 5759 5758 5755 5753 5750 5747 5744 5739 5735 5731 5728 5725 5723 5721 5718 5715 5709 5706 5701 5697 5694 5693 5691 5688 5686 5684 5681 5679 5677 5675 5673
5762 5762 5760 5758 5758 5759 5758 5759 5758 5756 5752 5750 5748 5747 5746 5743 5739 5736 5733 5731 5727 5725 5722 5720 5717 5713 5709 5706 5701 5698 5694 5691 5687 5683 5682 5679 5677 5676 5675 5673 5671 5669 5666
5750 5749 5748 5747 5747 5747 5746 5747 5746 5745 5741 5738 5737 5737 5736 5734 5731 5726 5722 5719 5718 5716 5715 5713 5709 5706 5701 5697 5693 5689 5687 5683 5680 5676 5675 5673 5672 5671 5670 5668 5665 5662 5660